Skip Page Navigation
NASA JPL Caltech
NASA Logo - Jet Propulsion Laboratory + View the NASA Portal
+ Center for Near-Earth Object Studies
JPL Home Earth Solar System Stars & Galaxies Technology
JPL Solar System Dynamics
BODIES ORBITS EPHEMERIDES TOOLS PHYSICAL DATA DISCOVERY FAQ SITE MAP
JPL Small-Body Database Browser
Search: [ help ]  
19761 (2000 JP10)
Classification: Main-belt Asteroid          SPK-ID: 2019761
Ephemeris | Orbit Diagram | Orbital Elements | Mission Design | Physical Parameters | Discovery Circumstances ]

[ hide orbit diagram ]

For accurate long-term ephemerides, please instead use our Horizons system.This orbit viewer was implemented using two-body methods, and hence should not be used for determining accurate long-term trajectories (over several years or decades) or planetary encounter circumstances.


Orbital Elements at Epoch 2459200.5 (2020-Dec-17.0) TDB
Reference: JPL 36 (heliocentric ecliptic J2000)
 Element Value Uncertainty (1-sigma)   Units 
e .2628968263295123 2.6971e-08  
a 2.30989153838553 9.3519e-09 au
q 1.702628383778579 6.4542e-08 au
i 22.12503677823091 6.692e-07 deg
node 241.3338681960867 4.3766e-06 deg
peri 257.6470601727511 5.7467e-06 deg
M 23.70046747543404 7.2994e-06 deg
tp 2459116.080996706292
(2020-Sep-23.58099671)
2.5704e-05 TDB
period 1282.288681319711
3.51
7.7873e-06
2.132e-08
d
yr
n .280748013489048 1.705e-09 deg/d
Q 2.917154692992481 1.181e-08 au
  Orbit Determination Parameters
   # obs. used (total)      1609  
   data-arc span      10762 days (29.46 yr)  
   first obs. used      1991-10-04  
   last obs. used      2021-03-22  
   planetary ephem.      DE441  
   SB-pert. ephem.      SB441-N16  
   condition code      0  
   norm. resid. RMS      .46485  
   source      ORB  
   producer      Otto Matic  
   solution date      2021-May-04 02:59:20  

Additional Information
 Earth MOID = .85064 au 
 Jupiter MOID = 2.59721 au 
 T_jup = 3.444 
[ show covariance matrix ]

Ephemeris | Orbit Diagram | Orbital Elements | Mission Design | Physical Parameters | Discovery Circumstances ]

Physical Parameter Table
Parameter Symbol Value Units Sigma Reference Notes
absolute magnitude H 13.93   n/a MPCxxxxx  
diameter diameter 5.370 km 0.030 urn:nasa:pds:neowise_diameters_albedos::2.0[mainbelt] (http://adsabs.harvard.edu/abs/2011ApJ...741...68M)  
geometric albedo albedo 0.223   0.036 urn:nasa:pds:neowise_diameters_albedos::2.0[mainbelt] (http://adsabs.harvard.edu/abs/2011ApJ...741...68M)  

19761 (2000 JP10)          Discovered 2000-May-07 by LINEAR at Socorro
Reference: 20001211/Numbers.arcLast Updated: 2004-04-19

Alternate Designations
 2000 JP10 = 1996 BB3 
Ephemeris | Orbit Diagram | Orbital Elements | Mission Design | Physical Parameters | Discovery Circumstances ]
ABOUT SSD CREDITS/AWARDS PRIVACY/COPYRIGHT GLOSSARY LINKS
FirstGov 2021-Jun-12 15:33 UT
(server date/time)  
NASA Home Page
Site Manager:   Ryan S. Park
Webmaster  Alan B. Chamberlin